• In Czech Republic
  • List of Countries
  • For 7 days
  • Water Temperature
  • Satellite Maps
  • Weather Map
  • Weather Widgets
  • user-avatar
    Login

    Hourly Weather Montreal

    Today, 12 December, Tuesday

    Time Temperature Precipitation Wind Pressure Humidity
    00:00 -9°C° 0 mm 2 mps 757 mmHg 63%
    01:00 -10°C° 0 mm 3 mps 756 mmHg 65%
    02:00 -10°C° 0.1 mm 3 mps 756 mmHg 68%
    03:00 -11°C° 0.1 mm 4 mps 755 mmHg 72%
    04:00 -11°C° 0.1 mm 4 mps 754 mmHg 76%
    05:00 -11°C° 0.4 mm 4 mps 754 mmHg 80%
    06:00 -12°C° 0.4 mm 5 mps 753 mmHg 85%
    07:00 -12°C° 0.4 mm 5 mps 752 mmHg 90%
    08:00 -11°C° 0.8 mm 5 mps 751 mmHg 91%
    09:00 -10°C° 0.8 mm 5 mps 750 mmHg 92%
    10:00 -10°C° 0.8 mm 6 mps 749 mmHg 93%
    11:00 -9°C° 1.1 mm 6 mps 748 mmHg 93%
    12:00 -7°C° 1.1 mm 5 mps 747 mmHg 93%
    13:00 -7°C° 1.1 mm 5 mps 745 mmHg 94%
    14:00 -6°C° 0.8 mm 5 mps 744 mmHg 94%
    15:00 -6°C° 0.8 mm 5 mps 743 mmHg 94%
    16:00 -6°C° 0.8 mm 5 mps 742 mmHg 94%
    17:00 -6°C° 0.8 mm 5 mps 741 mmHg 94%
    18:00 -5°C° 0.8 mm 5 mps 741 mmHg 95%
    19:00 -5°C° 0.8 mm 5 mps 740 mmHg 95%
    20:00 -5°C° 0.6 mm 5 mps 739 mmHg 95%
    21:00 -4°C° 0.6 mm 4 mps 739 mmHg 95%
    22:00 -5°C° 0.6 mm 4 mps 738 mmHg 95%
    23:00 -5°C° 0.4 mm 4 mps 738 mmHg 94%

    Tomorrow, 13 December, Wednesday

    Time Temperature Precipitation Wind Pressure Humidity
    00:00 -5°C° 0.4 mm 3 mps 737 mmHg 94%
    01:00 -5°C° 0.4 mm 3 mps 737 mmHg 93%
    02:00 -6°C° 0.4 mm 3 mps 736 mmHg 93%
    03:00 -7°C° 0.4 mm 4 mps 736 mmHg 93%
    04:00 -7°C° 0.4 mm 4 mps 736 mmHg 93%
    05:00 -8°C° 0.3 mm 4 mps 736 mmHg 92%
    06:00 -8°C° 0.3 mm 5 mps 735 mmHg 91%
    07:00 -10°C° 0.3 mm 5 mps 735 mmHg 90%
    08:00 -10°C° 0.2 mm 6 mps 736 mmHg 89%
    09:00 -11°C° 0.2 mm 6 mps 736 mmHg 88%
    10:00 -12°C° 0.2 mm 7 mps 736 mmHg 87%
    11:00 -13°C° 0.1 mm 7 mps 736 mmHg 86%
    12:00 -13°C° 0.1 mm 8 mps 736 mmHg 85%
    13:00 -13°C° 0.1 mm 8 mps 736 mmHg 84%
    14:00 -15°C° 0.1 mm 8 mps 737 mmHg 84%
    15:00 -15°C° 0.1 mm 8 mps 737 mmHg 84%
    16:00 -15°C° 0.1 mm 8 mps 738 mmHg 83%
    17:00 -15°C° 0.2 mm 8 mps 739 mmHg 83%
    18:00 -15°C° 0.2 mm 8 mps 739 mmHg 82%
    19:00 -16°C° 0.2 mm 8 mps 740 mmHg 82%
    20:00 -16°C° 0.1 mm 8 mps 741 mmHg 81%
    21:00 -17°C° 0.1 mm 8 mps 741 mmHg 79%
    22:00 -18°C° 0.1 mm 8 mps 742 mmHg 78%
    23:00 -18°C° 0 mm 8 mps 742 mmHg 79%

    Day after tomorrow, 14 December, Thursday

    Time Temperature Precipitation Wind Pressure Humidity
    00:00 -19°C° 0 mm 8 mps 743 mmHg 79%
    01:00 -21°C° 0 mm 8 mps 743 mmHg 79%
    02:00 -22°C° 0 mm 8 mps 743 mmHg 80%
    03:00 -21°C° 0 mm 7 mps 744 mmHg 81%
    04:00 -23°C° 0 mm 7 mps 744 mmHg 82%
    05:00 -23°C° 0 mm 7 mps 745 mmHg 82%
    06:00 -24°C° 0 mm 7 mps 745 mmHg 82%
    07:00 -24°C° 0 mm 7 mps 746 mmHg 83%
    08:00 -24°C° 0 mm 7 mps 747 mmHg 83%
    09:00 -23°C° 0 mm 7 mps 747 mmHg 82%
    10:00 -23°C° 0 mm 7 mps 748 mmHg 82%
    11:00 -21°C° 0 mm 7 mps 748 mmHg 82%
    12:00 -21°C° 0 mm 7 mps 748 mmHg 82%
    13:00 -20°C° 0 mm 7 mps 749 mmHg 81%
    14:00 -20°C° 0 mm 6 mps 749 mmHg 82%
    15:00 -21°C° 0 mm 6 mps 750 mmHg 82%
    16:00 -21°C° 0 mm 6 mps 751 mmHg 82%
    17:00 -20°C° 0 mm 5 mps 751 mmHg 83%
    18:00 -20°C° 0 mm 5 mps 752 mmHg 83%
    19:00 -20°C° 0 mm 5 mps 753 mmHg 84%
    20:00 -21°C° 0 mm 5 mps 753 mmHg 85%
    21:00 -21°C° 0 mm 5 mps 754 mmHg 85%
    22:00 -20°C° 0 mm 4 mps 754 mmHg 86%
    23:00 -20°C° 0 mm 4 mps 755 mmHg 87%

    15 December, Friday

    Time Temperature Precipitation Wind Pressure Humidity
    00:00 -20°C° 0 mm 4 mps 755 mmHg 87%
    01:00 -22°C° 0 mm 4 mps 755 mmHg 88%
    02:00 -22°C° 0 mm 4 mps 756 mmHg 89%
    03:00 -22°C° 0 mm 3 mps 756 mmHg 89%
    04:00 -22°C° 0 mm 3 mps 756 mmHg 90%
    05:00 -23°C° 0 mm 3 mps 756 mmHg 90%
    06:00 -21°C° 0 mm 2 mps 756 mmHg 91%
    07:00 -23°C° 0 mm 2 mps 757 mmHg 91%
    08:00 -20°C° 0 mm 2 mps 757 mmHg 89%
    09:00 -19°C° 0 mm 2 mps 757 mmHg 87%
    10:00 -16°C° 0 mm 1 mps 757 mmHg 85%
    11:00 -15°C° 0 mm 1 mps 756 mmHg 83%
    12:00 -14°C° 0 mm 1 mps 756 mmHg 82%
    13:00 -13°C° 0 mm 1 mps 755 mmHg 80%
    14:00 -13°C° 0 mm 1 mps 755 mmHg 84%
    15:00 -14°C° 0 mm 1 mps 754 mmHg 87%
    16:00 -15°C° 0 mm 1 mps 754 mmHg 90%
    17:00 -15°C° 0 mm 1 mps 754 mmHg 90%
    18:00 -15°C° 0 mm 1 mps 754 mmHg 90%
    19:00 -16°C° 0 mm 1 mps 754 mmHg 89%
    20:00 -16°C° 0 mm 1 mps 753 mmHg 90%
    21:00 -18°C° 0 mm 2 mps 753 mmHg 90%
    22:00 -18°C° 0 mm 2 mps 752 mmHg 91%
    23:00 -19°C° 0 mm 2 mps 752 mmHg 91%

    16 December, Saturday

    Time Temperature Precipitation Wind Pressure Humidity
    00:00 -19°C° 0 mm 2 mps 752 mmHg 92%
    01:00 -19°C° 0 mm 2 mps 751 mmHg 93%
    02:00 -19°C° 0 mm 2 mps 751 mmHg 92%
    03:00 -20°C° 0 mm 2 mps 751 mmHg 92%
    04:00 -20°C° 0 mm 2 mps 751 mmHg 92%
    05:00 -18°C° 0 mm 1 mps 751 mmHg 92%
    06:00 -18°C° 0 mm 1 mps 752 mmHg 91%
    07:00 -18°C° 0 mm 1 mps 752 mmHg 91%
    08:00 -17°C° 0 mm 1 mps 752 mmHg 89%
    09:00 -16°C° 0 mm 1 mps 753 mmHg 87%
    10:00 -15°C° 0 mm 1 mps 753 mmHg 85%
    11:00 -14°C° 0 mm 1 mps 753 mmHg 85%
    12:00 -15°C° 0 mm 2 mps 752 mmHg 84%
    13:00 -14°C° 0 mm 2 mps 752 mmHg 84%
    14:00 -14°C° 0 mm 2 mps 752 mmHg 86%
    15:00 -14°C° 0 mm 2 mps 752 mmHg 88%
    16:00 -16°C° 0 mm 3 mps 753 mmHg 90%
    17:00 -16°C° 0 mm 3 mps 753 mmHg 91%
    18:00 -16°C° 0 mm 3 mps 753 mmHg 91%
    19:00 -17°C° 0 mm 3 mps 754 mmHg 92%
    20:00 -16°C° 0 mm 3 mps 754 mmHg 92%
    21:00 -16°C° 0 mm 3 mps 754 mmHg 91%
    22:00 -15°C° 0 mm 2 mps 754 mmHg 90%
    23:00 -15°C° 0 mm 2 mps 754 mmHg 90%

    17 December, Sunday

    Time Temperature Precipitation Wind Pressure Humidity
    00:00 -15°C° 0 mm 2 mps 754 mmHg 90%
    01:00 -15°C° 0 mm 2 mps 754 mmHg 89%
    02:00 -13°C° 0 mm 1 mps 754 mmHg 89%
    03:00 -13°C° 0 mm 1 mps 754 mmHg 90%
    04:00 -13°C° 0 mm 1 mps 755 mmHg 90%
    05:00 -13°C° 0.1 mm 1 mps 755 mmHg 91%
    06:00 -13°C° 0.1 mm 1 mps 755 mmHg 91%
    07:00 -15°C° 0.1 mm 2 mps 755 mmHg 92%
    08:00 -15°C° 0.2 mm 2 mps 756 mmHg 91%
    09:00 -16°C° 0.2 mm 3 mps 756 mmHg 89%
    10:00 -16°C° 0.2 mm 3 mps 756 mmHg 88%
    11:00 -16°C° 0.1 mm 3 mps 756 mmHg 86%
    12:00 -16°C° 0.1 mm 3 mps 756 mmHg 85%
    13:00 -16°C° 0.1 mm 3 mps 756 mmHg 83%
    14:00 -17°C° 0 mm 3 mps 757 mmHg 85%
    15:00 -17°C° 0 mm 2 mps 757 mmHg 86%
    16:00 -18°C° 0 mm 2 mps 758 mmHg 88%
    17:00 -19°C° 0 mm 2 mps 759 mmHg 88%
    18:00 -18°C° 0 mm 1 mps 759 mmHg 88%
    19:00 -19°C° 0 mm 1 mps 760 mmHg 89%
    20:00 -19°C° 0 mm 1 mps 760 mmHg 89%
    21:00 -20°C° 0 mm 1 mps 761 mmHg 89%
    22:00 -20°C° 0 mm 1 mps 761 mmHg 88%
    23:00 -21°C° 0 mm 1 mps 761 mmHg 88%
    Show more